UPS292 KPDX-KONT

Flight info

Callsign UPS292
Flight time N/A
Altitude 37000
Route HRMNS6 HYJOE BORDY COLOM EHF ZIGGY8
Aircraft MD11/H-SDE1E2E3FGHIJ2J3J4J5M1RWXY/LB1D1

Departure

Time 2026-05-05 16:20
Airport Portland International Airport (KPDX)

Arrival

Time N/A
Airport Ontario International Airport (KONT)
Time Latitude Longitude Altitude Speed Heading
2026-05-05 15:59 45.58355 -122.61002 23 ft 0 kts 134°
2026-05-05 16:09 45.58357 -122.61004 24 ft 2 kts 134°
2026-05-05 16:10 45.58367 -122.61019 24 ft 1 kts 134°
2026-05-05 16:10 45.58373 -122.61028 24 ft 2 kts 129°
2026-05-05 16:10 45.58380 -122.61047 24 ft 2 kts 103°
2026-05-05 16:10 45.58382 -122.61068 24 ft 2 kts 83°
2026-05-05 16:11 45.58378 -122.61089 24 ft 2 kts 63°
2026-05-05 16:11 45.58368 -122.61108 24 ft 0 kts 44°
2026-05-05 16:13 45.58387 -122.61080 24 ft 5 kts 45°
2026-05-05 16:13 45.58420 -122.61032 24 ft 7 kts 45°
2026-05-05 16:13 45.58459 -122.60976 24 ft 8 kts 44°
2026-05-05 16:14 45.58556 -122.60867 24 ft 8 kts
2026-05-05 16:14 45.58674 -122.60847 25 ft 12 kts 43°
2026-05-05 16:15 45.58792 -122.60644 25 ft 12 kts 91°
2026-05-05 16:15 45.58683 -122.60333 25 ft 22 kts 118°
2026-05-05 16:16 45.58511 -122.59895 25 ft 26 kts 119°
2026-05-05 16:16 45.58336 -122.59446 26 ft 25 kts 118°
2026-05-05 16:17 45.58163 -122.59002 26 ft 24 kts 118°
2026-05-05 16:17 45.58084 -122.58797 26 ft 21 kts 118°
2026-05-05 16:18 45.57978 -122.58516 26 ft 9 kts 100°
2026-05-05 16:18 45.58018 -122.58439 26 ft 11 kts 29°
2026-05-05 16:18 45.58091 -122.58492 26 ft 0 kts 300°
2026-05-05 16:19 45.58197 -122.58765 27 ft 69 kts 298°
2026-05-05 16:19 45.59114 -122.61116 155 ft 177 kts 299°
2026-05-05 16:20 45.60397 -122.64098 1389 ft 178 kts 302°
2026-05-05 16:20 45.61686 -122.67091 2636 ft 180 kts 301°
2026-05-05 16:21 45.63002 -122.70313 3458 ft 210 kts 300°
2026-05-05 16:22 45.65526 -122.76581 5179 ft 265 kts 302°
2026-05-05 16:22 45.66962 -122.81544 6816 ft 283 kts 279°
2026-05-05 16:23 45.66391 -122.87099 8749 ft 294 kts 251°
2026-05-05 16:23 45.65708 -122.89849 9680 ft 298 kts 251°
2026-05-05 16:23 45.64323 -122.95531 11184 ft 319 kts 244°
2026-05-05 16:24 45.62957 -122.98210 11282 ft 352 kts 222°
2026-05-05 16:24 45.60840 -123.00165 11452 ft 380 kts 202°
2026-05-05 16:24 45.55290 -123.00766 12003 ft 422 kts 165°
2026-05-05 16:25 45.52544 -122.99236 12658 ft 430 kts 148°
2026-05-05 16:25 45.48300 -122.93375 14176 ft 435 kts 122°
2026-05-05 16:25 45.46594 -122.89808 14981 ft 440 kts 121°
2026-05-05 16:26 45.43135 -122.82533 16502 ft 452 kts 125°
2026-05-05 16:26 45.38414 -122.76423 17945 ft 469 kts 141°
2026-05-05 16:27 45.35703 -122.73819 18651 ft 475 kts 143°
2026-05-05 16:27 45.32899 -122.71320 19356 ft 480 kts 145°
2026-05-05 16:27 45.30060 -122.68867 20012 ft 485 kts 146°
2026-05-05 16:27 45.27139 -122.66377 20669 ft 490 kts 146°
2026-05-05 16:28 45.24228 -122.63905 21320 ft 494 kts 146°
2026-05-05 16:28 45.21287 -122.61409 21951 ft 499 kts 146°
2026-05-05 16:28 45.18288 -122.58863 22565 ft 503 kts 146°
2026-05-05 16:28 45.15305 -122.56328 23171 ft 507 kts 146°
2026-05-05 16:29 45.12247 -122.53730 23765 ft 512 kts 146°
2026-05-05 16:29 45.09222 -122.51160 24339 ft 516 kts 146°
2026-05-05 16:29 45.06113 -122.48518 24903 ft 521 kts 145°
2026-05-05 16:29 45.03001 -122.45873 25454 ft 525 kts 146°
2026-05-05 16:30 44.99897 -122.43234 25994 ft 529 kts 145°
2026-05-05 16:30 44.96743 -122.40554 26617 ft 530 kts 146°
2026-05-05 16:30 44.93497 -122.38155 27307 ft 533 kts 153°
2026-05-05 16:30 44.90024 -122.36309 28055 ft 534 kts 160°
2026-05-05 16:31 44.86474 -122.34820 28851 ft 531 kts 161°
2026-05-05 16:31 44.82870 -122.33313 29601 ft 529 kts 161°
2026-05-05 16:31 44.79377 -122.31794 30255 ft 528 kts 160°
2026-05-05 16:31 44.75872 -122.30228 30890 ft 527 kts 160°
2026-05-05 16:32 44.72372 -122.28637 31470 ft 527 kts 160°
2026-05-05 16:32 44.68792 -122.26998 32031 ft 527 kts 159°
2026-05-05 16:32 44.65229 -122.25358 32549 ft 527 kts 159°
2026-05-05 16:32 44.61723 -122.23744 33075 ft 526 kts 159°
2026-05-05 16:33 44.58257 -122.22148 33550 ft 525 kts 159°
2026-05-05 16:33 44.54784 -122.20550 33976 ft 525 kts 159°
2026-05-05 16:33 44.51281 -122.18940 34475 ft 524 kts 159°
2026-05-05 16:33 44.47800 -122.17341 34923 ft 524 kts 159°
2026-05-05 16:34 44.44317 -122.15741 35353 ft 523 kts 158°
2026-05-05 16:34 44.40866 -122.14153 35794 ft 521 kts 158°